User: anonymous   Login
Location: Ertinghausen
(51.6624°N, 9.7874°E)
Time: 04:57:11
(UTC+00:00)
Language:

CZ-2D R/B - Orbit

View from above orbital plane
View from above orbital plane
View from above satellite
View from above satellite

Ground track
Ground track

The orbit data is extracted from the following two-line orbital elements,

1 37932U 11068C   24194.43993934  .00000215  00000-0  11549-3 0  9995
2 37932  98.7971 136.1800 0037690 129.5711 341.6532 14.22534803656268
Epoch (UTC): 12 July 2024 10:33:30
Eccentricity: 0.0037690
inclination: 98.7971°
perigee height: 789 km
apogee height: 844 km
right ascension of ascending node: 136.1800°
argument of perigee: 129.5711°
revolutions per day: 14.22534803
mean anomaly at epoch: 341.6532°
orbit number at epoch: 65626

The dashed part of the orbit path shows where the satellite is in the earth's shadow,  

DLR